Погода в Почтовом

Россия / Республика Крым     44°50′12″N   33°57′48″E
темп.,
°C
ветер,
м/с
пор.,
м/с
влажн.,
%
обл.,
%
осадки,
мм/ч
давл.,
гПа
погр.,
м
28 сентября, вт
вт2800:00+9в11650 0.0 102010
03:00+8вюв11700 0.0 101910
06:00+7в21781 0.0 102010
09:00+12ссв24600 0.0 1020585
12:00+16ссв22455 0.0 10201592
15:00+16ссв434966 0.0 10201493
18:00+13св345798 0.0 1020296
21:00+12всв236798 0.0 1022110
29 сентября, ср
ср2900:00+11всв226880 0.1 102254
03:00+9всв227822 0.1 102240
06:00+8всв238612 0.0 102358
09:00+13св476722 0.1 1023699
12:00+15св675369 0.1 10221551
15:00+15св675246 0.2 10221470
18:00+12св69688 0.0 1024574
21:00+9всв49845 0.0 1025339
30 сентября, чт
чт3000:00+8всв388835 0.0 1025268
03:00+9св4783100 0.1 1025382
06:00+8св5108153 0.1 1025389
09:00+11св69706 0.1 1025956
12:00+14св785015 0.0 10241351
15:00+14св77444 0.0 10241346
18:00+10всв610560 0.0 1025626
21:00+8всв47660 0.0 1026243
1 октября, пт
пт100:00+7в25690 0.0 102690
03:00+6всв35680 0.0 1026114
06:00+6всв37710 0.0 1026231
09:00+11всв59550 0.0 1026835
12:00+14св68400 0.0 10261290
15:00+14св78435 0.0 10261319
18:00+10всв610622 0.0 1026708
21:00+8всв25726 0.0 102896
2 октября, сб
сб200:00+7всв24736 0.0 102775
03:00+7всв36735 0.0 1026158
06:00+6всв36761 0.0 1025212
09:00+11всв58643 0.0 1024728
12:00+15всв445215 0.0 10231176
15:00+16всв545234 0.0 10211230
18:00+12св46755 0.0 1022266
21:00+9в228972 0.0 102348